Weather History for KFLG - January, 2014

Change the Weather History Date:

Sunday, January 26, 2014

  Actual Average Record
Temperature  
Mean Temperature 41 °F 30 °F  
Max Temperature 56 °F 43 °F 60 °F (1987)
Min Temperature 25 °F 18 °F -15 °F (1937)
Degree Days  
Heating Degree Days 24 35  
Month to date heating degree days 770 916  
Since 1 July heating degree days 3683 3744  
Cooling Degree Days 0 0  
Month to date cooling degree days 0 0  
Year to date cooling degree days 0 0  
Moisture  
Dew Point 7 °F    
Average Humidity 31    
Maximum Humidity 55    
Minimum Humidity 6    
Precipitation  
Precipitation 0.00 in 0.06 in 1.55 in (2013)
Month to date precipitation 0.00 1.73  
Year to date precipitation 0.00 1.73  
Snow  
Snow 0.00 in 0.80 in 13.10 in (1948)
Month to date snowfall 0.0 19.1  
Since 1 July snowfall 48.2  
Snow Depth -    
Sea Level Pressure  
Sea Level Pressure 30.03 in    
Wind  
Wind Speed 7 mph (SW)    
Max Wind Speed 16 mph    
Max Gust Speed 21 mph    
Visibility 10 miles    
Events      
T = Trace of Precipitation, MM = Missing Value Source: NWS Daily Summary

Daily Weather History Graph

Daily Weather History Graph

Search for Another Location

Airport or City:

Trip Planner

Search our weather history database for the weather conditions in past years. The results will help you decide how hot, cold, wet, or windy it might be!

Date:

Astronomy

Jan. 26, 2014 Rise Set
Actual Time 7:29 AM MST 5:49 PM MST
Civil Twilight 7:02 AM MST 6:16 PM MST
Nautical Twilight 6:32 AM MST 6:46 PM MST
Astronomical Twilight 6:02 AM MST 7:16 PM MST
Moon 3:10 AM MST (1/26) 1:42 PM MST (1/26)
Length of Visible Light 11h 13m
Length of Day
10h 19m
Waning Crescent, 23% of the Moon is Illuminated
Jan 26
Waning Crescent
Jan 30
New
Feb 6
First Quarter
Feb 14
Full
Feb 22
Last Quarter

Hourly Weather History & Observations

Time (MST) Temp. Windchill Dew Point Humidity Pressure Visibility Wind Dir Wind Speed Gust Speed Precip Events Conditions
12:57 AM 34.0 °F 28.8 °F 10.9 °F 38% 30.04 in 10.0 mi West 5.8 mph - N/A   Clear
1:57 AM 34.0 °F 29.8 °F 10.9 °F 38% 30.03 in 10.0 mi West 4.6 mph - N/A   Clear
2:57 AM 30.0 °F 24.1 °F 12.0 °F 47% 30.04 in 10.0 mi SW 5.8 mph - N/A   Clear
3:57 AM 30.0 °F 26.5 °F 10.9 °F 45% 30.04 in 10.0 mi SSW 3.5 mph - N/A   Clear
4:57 AM 27.0 °F 21.6 °F 12.0 °F 53% 30.05 in 10.0 mi SW 4.6 mph - N/A   Clear
5:57 AM 27.0 °F 21.6 °F 12.0 °F 53% 30.09 in 10.0 mi WSW 4.6 mph - N/A   Clear
6:57 AM 27.0 °F 23.0 °F 10.9 °F 51% 30.12 in 10.0 mi SW 3.5 mph - N/A   Clear
7:57 AM 30.9 °F 27.5 °F 9.0 °F 40% 30.12 in 10.0 mi Variable 3.5 mph - N/A   Clear
8:57 AM 39.0 °F 34.8 °F 10.0 °F 30% 30.09 in 10.0 mi SW 5.8 mph - N/A   Clear
9:57 AM 44.1 °F 37.7 °F 8.1 °F 23% 30.09 in 10.0 mi SSW 12.7 mph - N/A   Clear
10:57 AM 48.9 °F - 1.9 °F 15% 30.06 in 10.0 mi SW 9.2 mph - N/A   Clear
11:57 AM 52.0 °F - -7.1 °F 9% 30.04 in 10.0 mi West 11.5 mph - N/A   Clear
12:57 PM 54.0 °F - -6.0 °F 8% 29.97 in 10.0 mi West 9.2 mph 18.4 mph N/A   Clear
1:57 PM 55.0 °F - -9.9 °F 7% 29.94 in 10.0 mi West 8.1 mph - N/A   Clear
2:57 PM 55.0 °F - -13.0 °F 6% 29.94 in 10.0 mi WSW 12.7 mph - N/A   Clear
3:57 PM 51.1 °F - 12.0 °F 21% 29.95 in 10.0 mi SSW 11.5 mph - N/A   Clear
4:57 PM 50.0 °F - 5.0 °F 16% 29.97 in 10.0 mi SW 12.7 mph - N/A   Clear
5:57 PM 42.1 °F 37.7 °F 9.0 °F 26% 30.01 in 10.0 mi SSW 6.9 mph - N/A   Clear
6:57 PM 36.0 °F 29.6 °F 10.9 °F 36% 30.05 in 10.0 mi SW 8.1 mph - N/A   Clear
7:57 PM 36.0 °F 30.3 °F 10.9 °F 36% 30.03 in 10.0 mi WSW 6.9 mph - N/A   Clear
8:57 PM 37.0 °F 34.5 °F 10.9 °F 34% 30.00 in 10.0 mi West 3.5 mph - N/A   Clear
9:57 PM 32.0 °F 27.5 °F 10.9 °F 42% 30.00 in 10.0 mi SW 4.6 mph - N/A   Clear
10:57 PM 28.9 °F 21.9 °F 12.0 °F 49% 29.99 in 10.0 mi SW 6.9 mph - N/A   Clear
11:57 PM 26.1 °F 21.9 °F 14.0 °F 60% 29.99 in 10.0 mi SW 3.5 mph - N/A   Clear